When you browse on this site, cookies collect data to enhance your experience and personalize the content and advertising you see.
Visit our Privacy Policy to learn more. By continuing to use the site, you agree to this use of cookies and data.
  • în România
  • Lista ţărilor
  • Pe 7 zile
  • Temperatura apei
  • Meteo pe hartă
  • Widget-uri
  • user-avatar
    Intrare

    Meteo pe oră la Igls

    Astăzi, 22 Octombrie, Marţi

    Timp Temperatura Precipitaţii Vânt Presiune Umiditate
    00:00 +13°C° 0 mm 2 m/s 689 mmHg 93%
    01:00 +13°C° 0 mm 2 m/s 689 mmHg 94%
    02:00 +13°C° 0 mm 2 m/s 689 mmHg 93%
    03:00 +13°C° 0 mm 2 m/s 689 mmHg 92%
    04:00 +13°C° 0 mm 2 m/s 688 mmHg 91%
    05:00 +13°C° 0 mm 2 m/s 689 mmHg 90%
    06:00 +13°C° 0 mm 2 m/s 689 mmHg 89%
    07:00 +13°C° 0 mm 2 m/s 689 mmHg 88%
    08:00 +15°C° 0 mm 2 m/s 689 mmHg 80%
    09:00 +17°C° 0 mm 2 m/s 690 mmHg 73%
    10:00 +19°C° 0 mm 2 m/s 690 mmHg 66%
    11:00 +20°C° 0 mm 2 m/s 690 mmHg 62%
    12:00 +21°C° 0 mm 2 m/s 690 mmHg 58%
    13:00 +23°C° 0 mm 2 m/s 690 mmHg 55%
    14:00 +21°C° 0 mm 2 m/s 690 mmHg 60%
    15:00 +21°C° 0 mm 1 m/s 689 mmHg 66%
    16:00 +20°C° 0 mm 1 m/s 689 mmHg 71%
    17:00 +18°C° 0 mm 1 m/s 689 mmHg 76%
    18:00 +16°C° 0 mm 2 m/s 689 mmHg 80%
    19:00 +14°C° 0 mm 2 m/s 688 mmHg 84%
    20:00 +14°C° 0 mm 2 m/s 688 mmHg 83%
    21:00 +14°C° 0 mm 2 m/s 688 mmHg 83%
    22:00 +13°C° 0 mm 2 m/s 688 mmHg 83%
    23:00 +13°C° 0 mm 2 m/s 688 mmHg 82%

    Mâine, 23 Octombrie, Miercuri

    Timp Temperatura Precipitaţii Vânt Presiune Umiditate
    00:00 +13°C° 0 mm 2 m/s 688 mmHg 81%
    01:00 +12°C° 0 mm 3 m/s 688 mmHg 80%
    02:00 +12°C° 0 mm 3 m/s 687 mmHg 80%
    03:00 +12°C° 0 mm 3 m/s 687 mmHg 79%
    04:00 +13°C° 0 mm 2 m/s 687 mmHg 78%
    05:00 +11°C° 0 mm 3 m/s 686 mmHg 77%
    06:00 +11°C° 0 mm 3 m/s 686 mmHg 75%
    07:00 +11°C° 0 mm 3 m/s 686 mmHg 74%
    08:00 +14°C° 0 mm 3 m/s 686 mmHg 66%
    09:00 +17°C° 0 mm 3 m/s 687 mmHg 59%
    10:00 +19°C° 0 mm 3 m/s 687 mmHg 52%
    11:00 +20°C° 0 mm 3 m/s 687 mmHg 49%
    12:00 +21°C° 0 mm 3 m/s 687 mmHg 46%
    13:00 +22°C° 0 mm 3 m/s 686 mmHg 42%
    14:00 +21°C° 0 mm 3 m/s 686 mmHg 47%
    15:00 +20°C° 0 mm 3 m/s 685 mmHg 52%
    16:00 +19°C° 0 mm 3 m/s 685 mmHg 56%
    17:00 +17°C° 0 mm 3 m/s 684 mmHg 62%
    18:00 +14°C° 0 mm 3 m/s 684 mmHg 67%
    19:00 +13°C° 0 mm 3 m/s 684 mmHg 72%
    20:00 +12°C° 0 mm 3 m/s 684 mmHg 73%
    21:00 +12°C° 0 mm 3 m/s 684 mmHg 74%
    22:00 +12°C° 0 mm 4 m/s 684 mmHg 75%
    23:00 +12°C° 0 mm 4 m/s 684 mmHg 74%

    Poimâine, 24 Octombrie, Joi

    Timp Temperatura Precipitaţii Vânt Presiune Umiditate
    00:00 +12°C° 0 mm 4 m/s 684 mmHg 74%
    01:00 +13°C° 0 mm 4 m/s 683 mmHg 73%
    02:00 +12°C° 0 mm 4 m/s 683 mmHg 73%
    03:00 +12°C° 0 mm 4 m/s 683 mmHg 73%
    04:00 +12°C° 0 mm 4 m/s 683 mmHg 72%
    05:00 +12°C° 0 mm 4 m/s 682 mmHg 71%
    06:00 +12°C° 0 mm 4 m/s 682 mmHg 69%
    07:00 +12°C° 0 mm 4 m/s 682 mmHg 67%
    08:00 +13°C° 0 mm 4 m/s 682 mmHg 63%
    09:00 +15°C° 0 mm 4 m/s 683 mmHg 60%
    10:00 +17°C° 0 mm 3 m/s 683 mmHg 56%
    11:00 +18°C° 0 mm 3 m/s 683 mmHg 54%
    12:00 +19°C° 0 mm 3 m/s 683 mmHg 52%
    13:00 +20°C° 0 mm 3 m/s 684 mmHg 50%
    14:00 +19°C° 0 mm 3 m/s 683 mmHg 56%
    15:00 +18°C° 0 mm 3 m/s 683 mmHg 62%
    16:00 +17°C° 0 mm 2 m/s 683 mmHg 68%
    17:00 +15°C° 0 mm 2 m/s 683 mmHg 74%
    18:00 +14°C° 0 mm 2 m/s 683 mmHg 80%
    19:00 +12°C° 0 mm 2 m/s 683 mmHg 86%
    20:00 +12°C° 0 mm 1 m/s 684 mmHg 86%
    21:00 +12°C° 0 mm 1 m/s 684 mmHg 87%
    22:00 +12°C° 0 mm 1 m/s 684 mmHg 87%
    23:00 +12°C° 0 mm 1 m/s 685 mmHg 87%

    25 Octombrie, Vineri

    Timp Temperatura Precipitaţii Vânt Presiune Umiditate
    00:00 +11°C° 0 mm 0 m/s 685 mmHg 88%
    01:00 +11°C° 0 mm 0 m/s 685 mmHg 89%
    02:00 +11°C° 0.2 mm 0 m/s 686 mmHg 90%
    03:00 +12°C° 0.2 mm 1 m/s 686 mmHg 92%
    04:00 +12°C° 0.2 mm 1 m/s 686 mmHg 93%
    05:00 +12°C° 0.6 mm 1 m/s 687 mmHg 94%
    06:00 +12°C° 0.6 mm 1 m/s 687 mmHg 96%
    07:00 +12°C° 0.6 mm 1 m/s 687 mmHg 97%
    08:00 +12°C° 0 mm 1 m/s 688 mmHg 94%
    09:00 +13°C° 0 mm 1 m/s 688 mmHg 91%
    10:00 +13°C° 0 mm 1 m/s 688 mmHg 89%
    11:00 +14°C° 0 mm 1 m/s 688 mmHg 86%
    12:00 +14°C° 0 mm 1 m/s 688 mmHg 83%
    13:00 +15°C° 0 mm 1 m/s 688 mmHg 80%
    14:00 +15°C° 0 mm 1 m/s 688 mmHg 80%
    15:00 +15°C° 0 mm 1 m/s 688 mmHg 79%
    16:00 +15°C° 0 mm 1 m/s 687 mmHg 78%
    17:00 +14°C° 0 mm 1 m/s 687 mmHg 83%
    18:00 +13°C° 0 mm 1 m/s 687 mmHg 87%
    19:00 +12°C° 0 mm 1 m/s 687 mmHg 92%
    20:00 +12°C° 0 mm 2 m/s 687 mmHg 91%
    21:00 +12°C° 0 mm 2 m/s 687 mmHg 90%
    22:00 +12°C° 0 mm 2 m/s 688 mmHg 89%
    23:00 +12°C° 0 mm 2 m/s 687 mmHg 89%

    26 Octombrie, Sâmbătă

    Timp Temperatura Precipitaţii Vânt Presiune Umiditate
    00:00 +12°C° 0 mm 2 m/s 687 mmHg 89%
    01:00 +12°C° 0 mm 2 m/s 687 mmHg 89%
    02:00 +10°C° 0 mm 2 m/s 687 mmHg 88%
    03:00 +10°C° 0 mm 2 m/s 686 mmHg 88%
    04:00 +10°C° 0 mm 2 m/s 686 mmHg 87%
    05:00 +10°C° 0 mm 2 m/s 686 mmHg 86%
    06:00 +10°C° 0 mm 1 m/s 686 mmHg 85%
    07:00 +10°C° 0 mm 1 m/s 686 mmHg 84%
    08:00 +13°C° 0 mm 1 m/s 687 mmHg 75%
    09:00 +15°C° 0 mm 1 m/s 688 mmHg 67%
    10:00 +19°C° 0 mm 1 m/s 688 mmHg 59%
    11:00 +20°C° 0 mm 1 m/s 688 mmHg 56%
    12:00 +21°C° 0 mm 1 m/s 688 mmHg 53%
    13:00 +22°C° 0 mm 1 m/s 688 mmHg 50%
    14:00 +21°C° 0 mm 1 m/s 687 mmHg 56%
    15:00 +20°C° 0 mm 1 m/s 687 mmHg 62%
    16:00 +19°C° 0 mm 1 m/s 687 mmHg 68%
    17:00 +16°C° 0 mm 1 m/s 687 mmHg 74%
    18:00 +14°C° 0 mm 1 m/s 687 mmHg 81%
    19:00 +10°C° 0 mm 0 m/s 686 mmHg 87%
    20:00 +10°C° 0 mm 0 m/s 686 mmHg 88%
    21:00 +10°C° 0 mm 0 m/s 687 mmHg 89%
    22:00 +10°C° 0 mm 0 m/s 687 mmHg 89%
    23:00 +9°C° 0 mm 0 m/s 687 mmHg 90%

    27 Octombrie, Duminică

    Timp Temperatura Precipitaţii Vânt Presiune Umiditate
    00:00 +9°C° 0 mm 0 m/s 687 mmHg 90%
    01:00 +9°C° 0 mm 0 m/s 686 mmHg 90%
    02:00 +9°C° 0 mm 0 m/s 687 mmHg 89%
    03:00 +10°C° 0 mm 0 m/s 687 mmHg 89%
    04:00 +10°C° 0 mm 0 m/s 687 mmHg 88%
    05:00 +10°C° 0 mm 0 m/s 687 mmHg 89%
    06:00 +9°C° 0 mm 0 m/s 687 mmHg 91%
    07:00 +10°C° 0 mm 1 m/s 687 mmHg 92%
    08:00 +11°C° 0 mm 1 m/s 688 mmHg 86%
    09:00 +13°C° 0 mm 1 m/s 688 mmHg 80%
    10:00 +14°C° 0 mm 1 m/s 689 mmHg 74%
    11:00 +15°C° 0 mm 1 m/s 689 mmHg 70%
    12:00 +16°C° 0 mm 1 m/s 689 mmHg 67%
    13:00 +16°C° 0 mm 1 m/s 689 mmHg 64%
    14:00 +16°C° 0 mm 1 m/s 688 mmHg 67%
    15:00 +15°C° 0 mm 1 m/s 688 mmHg 71%
    16:00 +15°C° 0 mm 1 m/s 688 mmHg 74%
    17:00 +14°C° 0 mm 1 m/s 688 mmHg 80%
    18:00 +12°C° 0 mm 0 m/s 688 mmHg 85%
    19:00 +11°C° 0 mm 0 m/s 687 mmHg 91%
    20:00 +11°C° 0 mm 0 m/s 687 mmHg 91%
    21:00 +11°C° 0 mm 0 m/s 688 mmHg 91%
    22:00 +11°C° 0 mm 0 m/s 688 mmHg 91%
    23:00 +11°C° 0.1 mm 0 m/s 687 mmHg 92%

    28 Octombrie, Luni

    Timp Temperatura Precipitaţii Vânt Presiune Umiditate
    00:00 +11°C° 0.1 mm 0 m/s 687 mmHg 92%
    01:00 +11°C° 0.1 mm 1 m/s 686 mmHg 93%
    02:00 +11°C° 0.1 mm 1 m/s 686 mmHg 92%
    03:00 +11°C° 0.1 mm 1 m/s 686 mmHg 91%
    04:00 +11°C° 0.1 mm 1 m/s 686 mmHg 91%
    05:00 +11°C° 0 mm 1 m/s 686 mmHg 90%
    06:00 +11°C° 0 mm 1 m/s 686 mmHg 90%
    07:00 +11°C° 0 mm 1 m/s 685 mmHg 89%
    08:00 +12°C° 0.1 mm 1 m/s 686 mmHg 87%
    09:00 +13°C° 0.1 mm 1 m/s 686 mmHg 85%
    10:00 +14°C° 0.1 mm 1 m/s 686 mmHg 82%
    11:00 +15°C° 0 mm 1 m/s 686 mmHg 75%
    12:00 +18°C° 0 mm 1 m/s 687 mmHg 67%
    13:00 +19°C° 0 mm 1 m/s 687 mmHg 59%
    14:00 +19°C° 0 mm 1 m/s 686 mmHg 64%
    15:00 +18°C° 0 mm 1 m/s 686 mmHg 69%
    16:00 +16°C° 0 mm 1 m/s 685 mmHg 74%
    17:00 +15°C° 0.1 mm 1 m/s 685 mmHg 77%
    18:00 +15°C° 0.1 mm 1 m/s 685 mmHg 81%
    19:00 +14°C° 0.1 mm 1 m/s 685 mmHg 84%
    20:00 +13°C° 0.1 mm 1 m/s 685 mmHg 84%
    21:00 +13°C° 0.1 mm 1 m/s 686 mmHg 85%
    22:00 +12°C° 0.1 mm 1 m/s 686 mmHg 85%
    23:00 +13°C° 0.1 mm 1 m/s 685 mmHg 86%
    Arată mai mult